Hourly Data Report for October 15, 2013

All times are specified in Local Standard Time (LST). Add 1 hour to adjust for Daylight Saving Time where and when it is observed.

QIKIQTARJUAQ A
NUNAVUT

67°32'48.000" N
64°01'54.000" W
5.50 m
2400577
YVM

Related Data

No related data is available for this station

Download Data

Hourly Data (October 2013)
Hourly Data Report for October 15, 2013
Temp Definition
°C
Dew Point Temp Definition
°C
Rel Hum Definition
%
Wind Dir Definition
10's deg

Wind Spd Definition
km/h
Visibility Definition
km
Stn Press Definition
kPa
Hmdx Definition


Wind Chill Definition


Weather Definition


TIME
00:00 Legend Double Dagger 0.7 0.6 99 6 9 1.2 101.16     LegendNANA
01:00 Legend Double Dagger 0.6 0.5 99   0 0.8 101.18     LegendNANA
02:00 Legend Double Dagger 0.6 0.5 99 35 5 1.6 101.20     LegendNANA
03:00 Legend Double Dagger 0.5 0.4 99 5 4 1.0 101.20     LegendNANA
04:00 Legend Double Dagger 0.5 0.4 99   0 0.6 101.17     LegendNANA
05:00 Legend Double Dagger 0.5 0.4 99   0 1.6 101.19     LegendNANA
06:00 Legend Double Dagger 0.4 0.4 100 20 5 0.2 101.18     LegendNANA
07:00 Legend Double Dagger 0.5 0.5 100   0 0.2 101.19     LegendNANA
08:00 Legend Double Dagger 0.5 0.5 100   0 0.6 101.18     LegendNANA
09:00 Legend Double Dagger 0.6 0.6 100   0 12.9 101.14     LegendNANA
10:00 Legend Double Dagger 0.6 0.6 100   0 3.2 101.12     LegendNANA
11:00 Legend Double Dagger 0.6 0.6 100 7 4 0.6 101.11     LegendNANA
12:00 Legend Double Dagger 0.5 0.5 100   0 1.2 101.11     LegendNANA
13:00 Legend Double Dagger 0.6 0.6 100   0 1.0 101.12     LegendNANA
14:00 Legend Double Dagger 0.6 0.6 100   0 3.6 101.13     LegendNANA
15:00 Legend Double Dagger 0.5 0.5 100   0 14.5 101.15     LegendNANA
16:00
17:00 Legend Double Dagger 0.4 0.0 97 20 15 16.1 101.18     LegendNANA
18:00
19:00 Legend Double Dagger 0.6 -1.0 89 21 17 16.1 101.19     LegendNANA
20:00 Legend Double Dagger -0.1 -1.7 89 20 11 16.1 101.19   -4 LegendNANA
21:00 Legend Double Dagger -0.2 -1.6 90 21 18 16.1 101.19   -5 LegendNANA
22:00 Legend Double Dagger -0.4 -1.8 90 21 21 16.1 101.17   -6 LegendNANA
23:00 Legend Double Dagger -0.5 -1.6 92 20 17 16.1 101.17   -5 LegendNANA

Notes on Data Quality.

Legend

  • E = Estimated
  • M = Missing
  • NA = Not Available
  • ‡ = Partner data that is not subject to review by the National Climate Archives
Date modified: